Regional Weather Roundup
Issued by NWS

Home | Current Version | Previous Version | Text Only | Print | Product List | Glossary On
Versions: 1 2 3 4 5 6 7 8 9 10 11 12 13 14 15 16 17 18 19 20 21 22 23 24 25 26 27 28 29 30 31 32 33 34 35 36 37 38 39 40 41 42 43 44 45 46 47 48 49 50
000
ASUS45 KPSR 031510
RWRAZ

ARIZONA HOURLY REGIONAL WEATHER ROUNDUP
NATIONAL WEATHER SERVICE PHOENIX AZ
800 AM MST WED JUN 03 2015

NOTE: FAIR INDICATES FEW OR NO CLOUDS BELOW 12,000 FEET WITH NO
SIGNIFICANT WEATHER AND/OR OBSTRUCTIONS TO VISIBILITY.

AZZ001>003-036-031600-
NORTHWEST ARIZONA

CITY           SKY/WX    TMP DP  RH WIND       PRES   REMARKS
BULLHEAD CITY  SUNNY     77  36  22 SW6       29.76S
KINGMAN        SUNNY     72  21  14 SW6       29.89S
$$

AZZ004>008-015-016-018-031600-
NORTH CENTRAL ARIZONA

CITY           SKY/WX    TMP DP  RH WIND       PRES   REMARKS
GRAND CANYON   SUNNY     63  21  20 S9        30.10S
WILLIAMS       SUNNY     64  21  19 S13G23    30.16S
PRESCOTT       SUNNY     70  27  20 S7        30.02S
FLAGSTAFF      SUNNY     60  18  19 SW12      30.13S
PAYSON         SUNNY     70  23  17 S6        30.07S
PAGE           SUNNY     73  17  12 SW5       29.96R
$$

AZZ009>014-017-031600-
NORTHEAST ARIZONA

CITY           SKY/WX    TMP DP  RH WIND       PRES   REMARKS
WINSLOW        SUNNY     71  21  15 SE7       30.04F
SAINT JOHNS    SUNNY     66  27  23 N3        30.10R
WINDOW ROCK    SUNNY     64  27  24 CALM      30.15F
SHOW LOW       SUNNY     68  16  13 S14G20    30.14S
$$

AZZ023-031600-
GREATER PHOENIX AREA

CITY           SKY/WX    TMP DP  RH WIND       PRES   REMARKS
PHOENIX        SUNNY     80  33  18 E5        29.82R
BUCKEYE        SUNNY     81  28  15 S3        29.84R
GLENDALE       SUNNY     81  32  17 CALM      29.84R
LUKE AFB       SUNNY     82  31  15 SW7       29.82R
DEER VALLEY    SUNNY     81  21  11 VRB3      29.84S
SCOTTSDALE     SUNNY     81  28  14 CALM      29.86R
MESA-FALCON    SUNNY     81  28  15 SE7       29.85R
MESA-GATEWAY   SUNNY     79  37  22 E8        29.86R
CHANDLER       SUNNY     79  39  24 E6        29.85R
$$

AZZ027-028-031600-
SOUTHWEST MARICOPA COUNTY AND PINAL COUNTY

CITY           SKY/WX    TMP DP  RH WIND       PRES   REMARKS
CASA GRANDE    SUNNY     79  32  18 CALM      29.84S
GILA BEND      SUNNY     82  27  13 VRB1      29.81S
$$

AZZ503-504-507>509-031600-
SOUTHEAST ARIZONA

CITY           SKY/WX    TMP DP  RH WIND       PRES   REMARKS
TUCSON         SUNNY     82  27  13 SE8       29.96R
DAVIS-MONTHAN  SUNNY     82  28  14 SE5       29.94S
RYAN FIELD     SUNNY     81  34  18 E8        29.94R
NOGALES        SUNNY     76  33  21 S5        30.03R
SIERRA VISTA   SUNNY     76  23  14 E5        30.08R
DOUGLAS        SUNNY     77  26  15 S9        30.06R
SAFFORD        SUNNY     77  28  16 SE5       29.95S
$$

AZZ020-021-025-026-031-031600-
SOUTHWEST ARIZONA

CITY           SKY/WX    TMP DP  RH WIND       PRES   REMARKS
YUMA           SUNNY     80  31  16 N6        29.80R
$$

CAZ031-033-041-043-047-048-061-031600-
SOUTHERN CALIFORNIA

CITY           SKY/WX    TMP DP  RH WIND       PRES   REMARKS
DOWNTOWN L.A.  CLOUDY    64  55  72 VRB3      29.93S
L.A. AIRPORT   CLOUDY    62  56  80 E7        29.94S
SAN DIEGO      CLOUDY    63  53  70 S6        29.99R
BURBANK        LGT RAIN  61  57  87 SE7       29.94R FOG
ONTARIO        CLOUDY    61  54  77 SW6       29.95S
RIVERSIDE      CLOUDY    61  56  83 CALM      29.96R
PALM SPRINGS   SUNNY     75  46  35 VRB3      29.81R
EL CENTRO NAS  SUNNY     83  26  12 W21G29    29.80R
IMPERIAL       SUNNY     81  32  17 NW14      29.77S
BLYTHE         SUNNY     76  42  29 CALM      29.78R
NEEDLES        SUNNY     84  34  16 W6        29.77R
$$

NVZ020-UTZ003-031600-
SOUTHERN NEVADA-UTAH

CITY           SKY/WX    TMP DP  RH WIND       PRES   REMARKS
LAS VEGAS      SUNNY     78  39  24 S14       29.76R
SALT LAKE CITY PTSUNNY   66  50  56 CALM      29.91S
$$

NMZ009-TXZ055-031600-
NEW MEXICO-WEST TEXAS

CITY           SKY/WX    TMP DP  RH WIND       PRES   REMARKS
ALBUQUERQUE    MOSUNNY   72  25  17 VRB3      30.10S
EL PASO        SUNNY     83  27  13 SW12      30.00R
$$


........................KEY........................
SKY/WX - SKY CONDITION/WEATHER
TMP    - TEMPERATURE IN FAHRENHEIT
DP     - DEW POINT IN FAHRENHEIT
RH     - RELATIVE HUMIDITY IN PERCENT
WIND   - DIRECTION AND SPEED IN MILES PER HOUR (MPH)
VRB    - VARIABLE WIND DIRECTION
PRES   - MEAN SEA LEVEL PRESSURE IN INCHES OF MERCURY
         F - FALLING PRESSURE   R - RISING PRESSURE
         S - STEADY PRESSURE
VSB    - VISIBILITY IN MILES
HX     - HEAT INDEX IN FAHRENHEIT
WCI    - WIND CHILL INDEX IN FAHRENHEIT
TC     - TEMPERATURE IN CELSIUS WHICH IS ALSO KNOWN AS
         TEMPERATURE IN CENTIGRADE
AFB    - AIR FORCE BASE
         LUKE AFB IS LUKE AIR FORCE BASE
         DAVIS-MONTHAN IS DAVIS-MONTHAN AIR FORCE BASE
NAS    - NAVAL AIR STATION
         EL CENTRO NAS IS EL CENTRO NAVAL AIR STATION
N/A    - NOT AVAILABLE



USA.gov is the U.S. government's official web portal to all federal, state and local government web resources and services.